| time (UTC) | temp C | wind direction | speed KPH | gust KPH | rain 1hr cm | rain 24hr cm | rain mn cm | humidity % | barometer mb |
| 20260505100343 | 11 | 206 | 0.0 | 0.0 | 0.00 | 0.00 | 0.00 | 90 | 1014.2 |
| 20260505095843 | 11 | 206 | 0.0 | 0.0 | 0.00 | 0.00 | 0.00 | 90 | 1014.3 |
| 20260505095343 | 11 | 206 | 0.0 | 0.0 | 0.00 | 0.00 | 0.00 | 90 | 1014.3 |
| 20260505094843 | 11 | 206 | 0.0 | 0.0 | 0.00 | 0.00 | 0.00 | 90 | 1014.3 |
| 20260505094343 | 11 | 206 | 0.0 | 1.6 | 0.00 | 0.00 | 0.00 | 90 | 1014.4 |
| 20260505093843 | 11 | 206 | 0.0 | 4.8 | 0.00 | 0.00 | 0.00 | 90 | 1014.4 |
| 20260505093343 | 11 | 206 | 0.0 | 4.8 | 0.00 | 0.00 | 0.00 | 90 | 1014.5 |
| 20260505092342 | 11 | 227 | 0.0 | 0.0 | 0.00 | 0.00 | 0.00 | 90 | 1014.6 |
| 20260505091842 | 11 | 227 | 0.0 | 0.0 | 0.00 | 0.00 | 0.00 | 90 | 1014.6 |
| 20260505091342 | 11 | 227 | 0.0 | 0.0 | 0.00 | 0.00 | 0.00 | 89 | 1014.5 |
| 20260505090842 | 11 | 227 | 0.0 | 0.0 | 0.00 | 0.00 | 0.00 | 89 | 1014.5 |
| 20260505090342 | 11 | 227 | 0.0 | 0.0 | 0.00 | 0.00 | 0.00 | 89 | 1014.5 |
| 20260505085842 | 11 | 227 | 0.0 | 0.0 | 0.00 | 0.00 | 0.00 | 89 | 1014.5 |
| 20260505084841 | 11 | 227 | 0.0 | 0.0 | 0.00 | 0.00 | 0.00 | 89 | 1014.5 |
| 20260505083841 | 11 | 227 | 0.0 | 3.2 | 0.00 | 0.00 | 0.00 | 89 | 1014.7 |
| 20260505083341 | 11 | 227 | 0.0 | 0.0 | 0.00 | 0.00 | 0.00 | 88 | 1014.8 |
| 20260505082341 | 11 | 227 | 0.0 | 3.2 | 0.00 | 0.00 | 0.00 | 87 | 1014.6 |
| 20260505081841 | 11 | 227 | 0.0 | 1.6 | 0.00 | 0.00 | 0.00 | 87 | 1014.7 |
| 20260505080841 | 12 | 227 | 0.0 | 3.2 | 0.00 | 0.00 | 0.00 | 86 | 1014.9 |
| 20260505080340 | 12 | 227 | 0.0 | 3.2 | 0.00 | 0.00 | 0.00 | 86 | 1014.9 |
| 20260505075841 | 12 | 227 | 3.2 | 3.2 | 0.00 | 0.00 | 0.00 | 86 | 1014.9 |
| 20260505075340 | 12 | 227 | 0.0 | 3.2 | 0.00 | 0.00 | 0.00 | 85 | 1015.0 |
| 20260505074340 | 12 | 227 | 3.2 | 4.8 | 0.00 | 0.00 | 0.00 | 84 | 1014.8 |
| 20260505073840 | 12 | 226 | 1.6 | 4.8 | 0.00 | 0.00 | 0.00 | 84 | 1014.8 |
| 20260505073340 | 13 | 226 | 4.8 | 4.8 | 0.00 | 0.00 | 0.00 | 83 | 1014.8 |
| 20260505072840 | 13 | 232 | 1.6 | 4.8 | 0.00 | 0.00 | 0.00 | 83 | 1014.7 |
| 20260505072340 | 13 | 232 | 3.2 | 4.8 | 0.00 | 0.00 | 0.00 | 83 | 1014.7 |
| 20260505071840 | 13 | 234 | 3.2 | 4.8 | 0.00 | 0.00 | 0.00 | 82 | 1014.7 |
| 20260505070339 | 12 | 187 | 0.0 | 0.0 | 0.00 | 0.00 | 0.00 | 83 | 1014.6 |
| 20260505065839 | 12 | 186 | 0.0 | 0.0 | 0.00 | 0.00 | 0.00 | 85 | 1014.6 |
| 20260505064839 | 11 | 182 | 0.0 | 0.0 | 0.00 | 0.00 | 0.00 | 87 | 1014.6 |
| 20260505064339 | 11 | 182 | 0.0 | 0.0 | 0.00 | 0.00 | 0.00 | 88 | 1014.7 |
| 20260505063839 | 11 | 182 | 0.0 | 0.0 | 0.00 | 0.00 | 0.00 | 88 | 1014.7 |
| 20260505063338 | 11 | 182 | 0.0 | 0.0 | 0.00 | 0.00 | 0.00 | 88 | 1014.8 |
| 20260505062338 | 11 | 182 | 0.0 | 0.0 | 0.00 | 0.00 | 0.00 | 87 | 1014.9 |
| 20260505061838 | 11 | 182 | 0.0 | 0.0 | 0.00 | 0.00 | 0.00 | 87 | 1014.9 |
| 20260505061338 | 11 | 182 | 0.0 | 0.0 | 0.00 | 0.00 | 0.00 | 88 | 1015.0 |
| 20260505060838 | 11 | 182 | 0.0 | 0.0 | 0.00 | 0.00 | 0.00 | 88 | 1015.0 |
| 20260505060338 | 11 | 182 | 0.0 | 0.0 | 0.00 | 0.00 | 0.00 | 87 | 1015.0 |
| 20260505055337 | 11 | 182 | 0.0 | 0.0 | 0.00 | 0.00 | 0.00 | 86 | 1015.0 |
| 20260505054837 | 11 | 180 | 0.0 | 0.0 | 0.00 | 0.00 | 0.00 | 86 | 1014.8 |
| 20260505054337 | 11 | 180 | 0.0 | 0.0 | 0.00 | 0.00 | 0.00 | 85 | 1014.7 |
| 20260505053837 | 11 | 180 | 0.0 | 0.0 | 0.00 | 0.00 | 0.00 | 86 | 1014.8 |
| 20260505052337 | 12 | 180 | 0.0 | 0.0 | 0.00 | 0.00 | 0.00 | 85 | 1014.6 |
| 20260505051837 | 12 | 180 | 0.0 | 0.0 | 0.00 | 0.00 | 0.00 | 84 | 1014.6 |
| 20260505051337 | 12 | 180 | 0.0 | 0.0 | 0.00 | 0.00 | 0.00 | 84 | 1014.7 |
| 20260505050336 | 12 | 180 | 0.0 | 0.0 | 0.00 | 0.00 | 0.00 | 83 | 1014.7 |
| 20260505040905 | 13 | 180 | 0.0 | 0.0 | 0.00 | 0.00 | 0.00 | 83 | 1014.8 |
| 20260505035835 | 13 | 180 | 0.0 | 0.0 | 0.00 | 0.00 | 0.00 | 81 | 1014.7 |
| 20260505034905 | 13 | 180 | 0.0 | 0.0 | 0.00 | 0.00 | 0.00 | 80 | 1014.6 |
| 20260505034405 | 13 | 180 | 0.0 | 0.0 | 0.00 | 0.00 | 0.00 | 79 | 1014.6 |
| 20260505033905 | 13 | 180 | 0.0 | 0.0 | 0.00 | 0.00 | 0.00 | 79 | 1014.6 |
| 20260505033404 | 13 | 180 | 0.0 | 0.0 | 0.00 | 0.00 | 0.00 | 79 | 1014.7 |
| 20260505032904 | 14 | 180 | 0.0 | 0.0 | 0.00 | 0.00 | 0.00 | 79 | 1014.7 |
| 20260505032404 | 14 | 180 | 0.0 | 0.0 | 0.00 | 0.00 | 0.00 | 78 | 1014.7 |
| 20260505031904 | 14 | 180 | 0.0 | 0.0 | 0.00 | 0.00 | 0.00 | 77 | 1014.7 |
| 20260505031404 | 14 | 180 | 0.0 | 0.0 | 0.00 | 0.00 | 0.00 | 75 | 1014.8 |
| 20260505030404 | 15 | 180 | 0.0 | 0.0 | 0.00 | 0.00 | 0.00 | 76 | 1014.7 |
| 20260505025904 | 15 | 180 | 0.0 | 1.6 | 0.00 | 0.00 | 0.00 | 74 | 1014.7 |
| 20260505025404 | 15 | 180 | 0.0 | 3.2 | 0.00 | 0.00 | 0.00 | 73 | 1014.7 |
| 20260505024904 | 15 | 180 | 1.6 | 3.2 | 0.00 | 0.00 | 0.00 | 75 | 1014.6 |
| 20260505023903 | 15 | 181 | 3.2 | 3.2 | 0.00 | 0.00 | 0.00 | 72 | 1014.7 |
| 20260505022903 | 15 | 180 | 1.6 | 3.2 | 0.00 | 0.00 | 0.00 | 73 | 1014.5 |
| 20260505022403 | 15 | 180 | 1.6 | 3.2 | 0.00 | 0.00 | 0.00 | 72 | 1014.5 |
| 20260505021903 | 15 | 180 | 1.6 | 3.2 | 0.00 | 0.00 | 0.00 | 73 | 1014.5 |
| 20260505021403 | 15 | 180 | 3.2 | 3.2 | 0.00 | 0.00 | 0.00 | 73 | 1014.4 |
| 20260505020903 | 15 | 180 | 1.6 | 3.2 | 0.00 | 0.00 | 0.00 | 73 | 1014.3 |
| 20260505020402 | 16 | 180 | 0.0 | 0.0 | 0.00 | 0.00 | 0.00 | 71 | 1014.3 |
| 20260505015902 | 16 | 180 | 0.0 | 0.0 | 0.00 | 0.00 | 0.00 | 71 | 1014.2 |
| 20260505014902 | 16 | 180 | 0.0 | 0.0 | 0.00 | 0.00 | 0.00 | 69 | 1014.0 |
| 20260505013902 | 16 | 180 | 0.0 | 0.0 | 0.00 | 0.00 | 0.00 | 70 | 1014.0 |
| 20260505013402 | 16 | 180 | 0.0 | 0.0 | 0.00 | 0.00 | 0.00 | 70 | 1013.9 |
| 20260505012902 | 16 | 180 | 0.0 | 0.0 | 0.00 | 0.00 | 0.00 | 70 | 1014.0 |
| 20260505012402 | 16 | 180 | 0.0 | 0.0 | 0.00 | 0.00 | 0.00 | 70 | 1013.9 |
| 20260505011902 | 16 | 180 | 0.0 | 4.8 | 0.00 | 0.00 | 0.00 | 71 | 1013.9 |
| 20260505011401 | 16 | 180 | 0.0 | 4.8 | 0.00 | 0.00 | 0.00 | 72 | 1013.9 |
| 20260505010901 | 17 | 180 | 3.2 | 4.8 | 0.00 | 0.00 | 0.00 | 71 | 1013.8 |
| 20260505010401 | 17 | 180 | 0.0 | 0.0 | 0.00 | 0.00 | 0.00 | 69 | 1013.7 |
| 20260505005901 | 17 | 180 | 0.0 | 0.0 | 0.00 | 0.00 | 0.00 | 68 | 1013.8 |
| 20260505005401 | 17 | 180 | 0.0 | 0.0 | 0.00 | 0.00 | 0.00 | 67 | 1013.7 |
| 20260505004401 | 18 | 180 | 0.0 | 0.0 | 0.00 | 0.00 | 0.00 | 66 | 1013.6 |
| 20260505003900 | 18 | 180 | 0.0 | 0.0 | 0.00 | 0.00 | 0.00 | 64 | 1013.6 |
| 20260505003400 | 19 | 180 | 0.0 | 0.0 | 0.00 | 0.00 | 0.00 | 62 | 1013.5 |
| 20260505002900 | 20 | 180 | 0.0 | 0.0 | 0.00 | 0.00 | 0.00 | 62 | 1013.4 |
| 20260505002400 | 20 | 180 | 0.0 | 0.0 | 0.00 | 0.00 | 0.00 | 59 | 1013.4 |
| 20260505001900 | 21 | 180 | 0.0 | 0.0 | 0.00 | 0.00 | 0.00 | 57 | 1013.5 |
| 20260505001400 | 22 | 180 | 0.0 | 0.0 | 0.00 | 0.00 | 0.00 | 53 | 1013.4 |
| 20260505000900 | 22 | 180 | 0.0 | 0.0 | 0.00 | 0.00 | 0.00 | 52 | 1013.5 |
| 20260505000400 | 23 | 180 | 0.0 | 3.2 | 0.00 | 0.00 | 0.00 | 51 | 1013.6 |
| 20260504235900 | 23 | 180 | 0.0 | 4.8 | 0.00 | 0.00 | 0.00 | 52 | 1013.7 |
| 20260504235359 | 23 | 180 | 1.6 | 9.7 | 0.00 | 0.00 | 0.00 | 48 | 1013.6 |
| 20260504234859 | 23 | 180 | 3.2 | 11.3 | 0.00 | 0.00 | 0.00 | 48 | 1013.4 |
| 20260504234359 | 23 | 188 | 8.0 | 11.3 | 0.00 | 0.00 | 0.00 | 47 | 1013.6 |
| 20260504233859 | 23 | 195 | 3.2 | 6.4 | 0.00 | 0.00 | 0.00 | 49 | 1013.6 |
| 20260504233359 | 23 | 196 | 6.4 | 12.9 | 0.00 | 0.00 | 0.00 | 47 | 1013.6 |
| 20260504232859 | 24 | 178 | 4.8 | 12.9 | 0.00 | 0.00 | 0.00 | 45 | 1013.7 |
| 20260504232359 | 24 | 210 | 6.4 | 11.3 | 0.00 | 0.00 | 0.00 | 45 | 1013.7 |
| 20260504231858 | 24 | 219 | 6.4 | 12.9 | 0.00 | 0.00 | 0.00 | 44 | 1013.8 |
| 20260504231358 | 24 | 209 | 4.8 | 12.9 | 0.00 | 0.00 | 0.00 | 43 | 1013.8 |
| 20260504230858 | 24 | 182 | 3.2 | 16.1 | 0.00 | 0.00 | 0.00 | 44 | 1013.7 |
| 20260504230358 | 25 | 187 | 9.7 | 16.1 | 0.00 | 0.00 | 0.00 | 41 | 1013.8 |
| 20260504225858 | 25 | 194 | 4.8 | 11.3 | 0.00 | 0.00 | 0.00 | 45 | 1013.9 |
| 20260504225358 | 25 | 205 | 8.0 | 9.7 | 0.00 | 0.00 | 0.00 | 44 | 1013.8 |
| 20260504224858 | 25 | 216 | 1.6 | 16.1 | 0.00 | 0.00 | 0.00 | 44 | 1013.7 |
| 20260504224358 | 25 | 207 | 3.2 | 16.1 | 0.00 | 0.00 | 0.00 | 44 | 1013.8 |
| 20260504223857 | 25 | 171 | 11.3 | 16.1 | 0.00 | 0.00 | 0.00 | 41 | 1013.8 |
| 20260504223358 | 25 | 194 | 1.6 | 16.1 | 0.00 | 0.00 | 0.00 | 42 | 1013.9 |
| 20260504222857 | 25 | 150 | 9.7 | 16.1 | 0.00 | 0.00 | 0.00 | 43 | 1014.0 |
| 20260504222357 | 25 | 190 | 11.3 | 16.1 | 0.00 | 0.00 | 0.00 | 41 | 1014.1 |
| 20260504221857 | 25 | 203 | 6.4 | 16.1 | 0.00 | 0.00 | 0.00 | 40 | 1014.2 |
| 20260504221357 | 25 | 180 | 9.7 | 16.1 | 0.00 | 0.00 | 0.00 | 42 | 1014.2 |
| 20260504220857 | 25 | 188 | 6.4 | 17.7 | 0.00 | 0.00 | 0.00 | 41 | 1014.2 |
| 20260504220357 | 25 | 163 | 6.4 | 17.7 | 0.00 | 0.00 | 0.00 | 41 | 1014.3 |
| 20260504215356 | 25 | 189 | 16.1 | 19.3 | 0.00 | 0.00 | 0.00 | 41 | 1014.2 |
| 20260504214356 | 26 | 211 | 12.9 | 16.1 | 0.00 | 0.03 | 0.00 | 44 | 1014.3 |
| 20260504213856 | 26 | 235 | 8.0 | 17.7 | 0.00 | 0.03 | 0.00 | 43 | 1014.3 |
| 20260504213356 | 26 | 220 | 9.7 | 17.7 | 0.00 | 0.03 | 0.00 | 42 | 1014.2 |
| 20260504212356 | 26 | 233 | 9.7 | 16.1 | 0.00 | 0.03 | 0.00 | 42 | 1014.3 |
| 20260504211856 | 26 | 221 | 4.8 | 14.5 | 0.00 | 0.03 | 0.00 | 42 | 1014.2 |
| 20260504211356 | 26 | 144 | 12.9 | 20.9 | 0.00 | 0.03 | 0.00 | 44 | 1014.3 |
| 20260504205855 | 26 | 149 | 9.7 | 17.7 | 0.00 | 0.03 | 0.00 | 44 | 1014.3 |
| 20260504205355 | 25 | 188 | 11.3 | 17.7 | 0.00 | 0.03 | 0.00 | 43 | 1014.4 |
| 20260504204355 | 25 | 238 | 9.7 | 14.5 | 0.00 | 0.03 | 0.00 | 43 | 1014.5 |
| 20260504203855 | 25 | 147 | 4.8 | 11.3 | 0.00 | 0.03 | 0.00 | 43 | 1014.5 |
| 20260504203355 | 25 | 189 | 1.6 | 12.9 | 0.00 | 0.03 | 0.00 | 44 | 1014.6 |
| 20260504202854 | 25 | 147 | 6.4 | 12.9 | 0.00 | 0.03 | 0.00 | 46 | 1014.7 |
| 20260504202354 | 25 | 225 | 1.6 | 17.7 | 0.00 | 0.03 | 0.00 | 47 | 1014.7 |
| 20260504201854 | 25 | 240 | 4.8 | 17.7 | 0.00 | 0.03 | 0.00 | 46 | 1014.8 |
| 20260504201354 | 25 | 258 | 11.3 | 16.1 | 0.00 | 0.03 | 0.00 | 43 | 1014.8 |
| 20260504200854 | 25 | 211 | 11.3 | 14.5 | 0.00 | 0.03 | 0.00 | 48 | 1015.0 |
| 20260504200354 | 25 | 113 | 1.6 | 16.1 | 0.00 | 0.03 | 0.00 | 47 | 1015.1 |
| 20260504195854 | 25 | 172 | 4.8 | 16.1 | 0.00 | 0.03 | 0.00 | 44 | 1015.2 |
| 20260504195354 | 25 | 191 | 1.6 | 16.1 | 0.00 | 0.03 | 0.00 | 42 | 1015.1 |
| 20260504194354 | 25 | 250 | 1.6 | 16.1 | 0.00 | 0.03 | 0.00 | 44 | 1015.2 |
| 20260504193853 | 25 | 186 | 8.0 | 19.3 | 0.00 | 0.03 | 0.00 | 45 | 1015.3 |
| 20260504193353 | 25 | 152 | 8.0 | 19.3 | 0.00 | 0.03 | 0.00 | 43 | 1015.3 |
| 20260504192853 | 25 | 168 | 14.5 | 14.5 | 0.00 | 0.03 | 0.00 | 48 | 1015.4 |
| 20260504192353 | 25 | 309 | 4.8 | 14.5 | 0.00 | 0.03 | 0.00 | 45 | 1015.4 |
| 20260504191853 | 25 | 234 | 14.5 | 16.1 | 0.00 | 0.03 | 0.00 | 46 | 1015.5 |
| 20260504191353 | 25 | 207 | 4.8 | 20.9 | 0.00 | 0.03 | 0.00 | 45 | 1015.7 |
| 20260504190853 | 25 | 177 | 9.7 | 20.9 | 0.00 | 0.03 | 0.00 | 50 | 1015.8 |
| 20260504190352 | 24 | 252 | 3.2 | 14.5 | 0.00 | 0.03 | 0.00 | 46 | 1015.9 |
| 20260504185852 | 24 | 161 | 3.2 | 17.7 | 0.00 | 0.03 | 0.00 | 50 | 1016.0 |
| 20260504184853 | 23 | 203 | 6.4 | 17.7 | 0.00 | 0.03 | 0.00 | 49 | 1016.0 |
| 20260504184353 | 24 | 130 | 8.0 | 17.7 | 0.00 | 0.03 | 0.00 | 48 | 1016.2 |
| 20260504182852 | 24 | 221 | 6.4 | 16.1 | 0.00 | 0.03 | 0.00 | 47 | 1016.5 |
| 20260504182352 | 24 | 174 | 3.2 | 17.7 | 0.00 | 0.03 | 0.00 | 48 | 1016.5 |
| 20260504181851 | 24 | 160 | 11.3 | 17.7 | 0.00 | 0.03 | 0.00 | 51 | 1016.4 |
| 20260504181352 | 24 | 144 | 4.8 | 14.5 | 0.00 | 0.03 | 0.00 | 53 | 1016.5 |
| 20260504180851 | 24 | 178 | 0.0 | 14.5 | 0.00 | 0.03 | 0.00 | 49 | 1016.6 |
| 20260504180351 | 23 | 197 | 8.0 | 12.9 | 0.00 | 0.03 | 0.00 | 54 | 1016.5 |
| 20260504175851 | 23 | 296 | 1.6 | 12.9 | 0.00 | 0.03 | 0.00 | 54 | 1016.6 |
| 20260504174851 | 23 | 270 | 4.8 | 19.3 | 0.00 | 0.03 | 0.00 | 52 | 1016.7 |
| 20260504174351 | 23 | 159 | 1.6 | 19.3 | 0.00 | 0.03 | 0.00 | 54 | 1016.7 |
| 20260504173851 | 23 | 129 | 11.3 | 12.9 | 0.00 | 0.03 | 0.00 | 51 | 1016.8 |
| 20260504173351 | 23 | 144 | 3.2 | 17.7 | 0.00 | 0.03 | 0.00 | 51 | 1017.0 |
| 20260504172851 | 23 | 139 | 8.0 | 17.7 | 0.00 | 0.03 | 0.00 | 54 | 1017.0 |
| 20260504171851 | 23 | 234 | 8.0 | 9.7 | 0.00 | 0.03 | 0.00 | 52 | 1017.3 |
| 20260504171350 | 23 | 198 | 6.4 | 22.5 | 0.00 | 0.03 | 0.00 | 53 | 1017.3 |
| 20260504170850 | 23 | 141 | 3.2 | 22.5 | 0.00 | 0.03 | 0.00 | 52 | 1017.4 |
| 20260504160349 | 21 | 247 | 6.4 | 14.5 | 0.00 | 0.03 | 0.00 | 59 | 1018.2 |
| 20260504150848 | 19 | 225 | 6.4 | 12.9 | 0.00 | 0.03 | 0.00 | 67 | 1018.1 |
| 20260504150348 | 19 | 194 | 3.2 | 12.9 | 0.00 | 0.03 | 0.00 | 67 | 1018.1 |
| 20260504140847 | 16 | 157 | 4.8 | 8.0 | 0.00 | 0.05 | 0.00 | 72 | 1018.7 |
| 20260504140347 | 16 | 154 | 1.6 | 6.4 | 0.00 | 0.05 | 0.00 | 73 | 1018.7 |
| 20260504130346 | 11 | 192 | 4.8 | 4.8 | 0.00 | 0.05 | 0.00 | 91 | 1018.5 |
| 20260504110344 | 6 | 219 | 0.0 | 0.0 | 0.00 | 0.05 | 0.00 | 93 | 1017.9 |